[[{"header":{"parameterUnit":"m.s-1","parameterCategory":1,"la1":30.2991,"la2":30.254,"lo1":-89.0895,"lo2":-89.0444,"dy":0.0017,"dx":0.0017,"nx":28,"ny":28,"refTime":"2024-05-14T09:00:00:Z","depth":0,"parameterNumber":2,"parameterNumberName":"U-component_of_WINDS"},"data":[0,0,0,0,0,0,0,0,0,0,0,0,0,0,0,0,0,0,0,0,0,0,0,0,0,0,0,0,0,0,0,0,0,0,0,0,0,0,0,0,0,0,0,0,0,0,0,0,0,0,0,0,0,0,0,0,0,0,1.1866,1.1868,0,1.2026,1.2028,1.203,1.2048,1.2046,1.2044,1.2043,1.2211,1.2217,1.2223,0,0,0,0,0,0,0,0,0,0,0,0,0,1.1581,1.1586,1.1866,1.1868,1.187,1.2026,1.2028,1.2031,1.2048,1.2046,1.2044,1.2042,1.2209,1.2216,1.2223,0,0,0,0,0,0,0,0,0,0,0,0,0,1.1719,1.1588,1.1866,1.1898,1.1902,1.2026,1.2028,1.2031,1.2048,1.2046,1.2043,1.2041,1.2207,1.2215,1.2224,1.2329,0,0,1.2252,1.2256,0,0,0,0,0,0,0,0,1.1712,1.173,1.1891,1.1896,1.1901,1.2014,1.1989,1.2131,1.2049,1.1993,1.2043,1.204,1.2148,1.2161,1.2197,1.2336,1.2344,1.2252,1.2258,1.2262,1.2264,0,0,0,0,0,0,0,1.1702,1.1723,1.193,1.1893,1.1899,1.1906,1.1923,1.2016,1.2082,1.1998,1.1999,1.2018,1.215,1.2188,1.2201,1.2346,1.2252,1.226,1.2266,1.2269,1.2582,1.2585,0,0,0,0,0,0,1.1686,1.1715,1.1925,1.1935,1.1798,1.1913,1.1932,1.1981,1.2081,1.2094,1.202,1.2018,1.2174,1.2191,1.2207,1.2338,1.2262,1.227,1.2275,1.2579,1.2583,1.2586,0,0,0,0,0,0,1.168,1.1704,1.1918,1.1825,1.1853,1.192,1.1975,1.1985,1.2023,1.2098,1.211,1.2046,1.2173,1.2194,1.2299,1.2344,1.2274,1.2282,1.2576,1.258,1.2585,1.2599,0,0,0,0,0,0,1.1671,1.1702,1.1741,1.1826,1.1858,1.2006,1.1978,1.199,1.2038,1.2037,1.2126,1.2138,1.2173,1.2285,1.2307,1.2355,1.2289,1.2572,1.2578,1.2583,1.2595,1.2603,1.2611,0,0,0,0,0,1.1661,1.1739,1.1743,1.1768,1.1908,1.2008,1.2026,1.2063,1.2042,1.2083,1.2131,1.2136,1.2335,1.2296,1.2321,1.2372,1.257,1.2576,1.2583,1.2591,1.2602,1.261,0,0,0,0,0,0,1.1658,1.1751,1.1756,1.1863,1.1928,1.2011,1.2063,1.2072,1.2145,1.2142,1.2185,1.2205,1.2308,1.235,1.2305,1.248,1.245,1.2462,1.2448,1.2459,1.2466,1.2455,1.2297,0,0,0,0,0,1.167,1.1742,1.1819,1.1907,1.1939,1.1995,1.204,1.2063,1.2132,1.216,1.2215,1.2283,1.2362,1.2412,1.2488,1.2601,1.2622,1.2648,1.2656,1.2662,1.2673,1.2738,1.2752,1.2608,1.2608,1.2608,0,0,1.1696,1.1755,1.1798,1.1908,1.196,1.2036,1.2018,1.2098,1.2156,1.2172,1.2274,1.2318,1.2397,1.2506,1.2557,1.2545,1.2717,1.2671,1.2675,1.2682,1.2746,1.276,1.2772,1.2612,1.2611,1.2611,0,0,1.1781,1.1832,1.1911,1.1964,1.2044,1.2081,1.21,1.2182,1.2212,1.2314,1.2329,1.2399,1.2531,1.2588,1.2634,1.2742,1.2751,1.2766,1.2808,1.2871,1.2882,1.2893,1.2934,1.2948,1.2776,1.2776,1.2776,0,1.1803,1.1916,1.1951,1.2032,1.2081,1.2098,1.218,1.2231,1.2331,1.2366,1.235,1.2519,1.2573,1.2697,1.2723,1.2759,1.2785,1.2757,1.2877,1.2888,1.2898,1.2938,1.2953,1.2777,1.2777,1.2777,1.2777,0,1.194,1.2018,1.2073,1.2169,1.2225,1.2305,1.2355,1.2407,1.2425,1.2465,1.2571,1.2637,1.2727,1.2758,1.2777,1.2886,1.2876,1.2868,1.284,1.2913,1.2951,1.2966,1.2779,1.2779,1.2778,1.2778,0,0,1.2028,1.2143,1.2163,1.2208,1.2297,1.236,1.2442,1.253,1.2575,1.2644,1.2716,1.2829,1.2823,1.2875,1.2901,1.2956,1.3041,1.2942,1.2945,1.296,1.3168,1.3174,1.3191,1.3046,1.3049,1.3051,1.3162,0,1.2125,1.2271,1.2306,1.2433,1.2507,1.2525,1.2598,1.2662,1.2701,1.2772,1.2816,1.2896,1.2881,1.2913,1.2968,1.3018,1.3083,1.3011,1.3116,1.3119,1.3097,1.321,1.3217,1.3318,1.3177,1.3179,1.3181,0,1.2258,1.2329,1.2462,1.2544,1.2576,1.2641,1.2725,1.2791,1.2865,1.289,1.2949,1.2969,1.3059,1.3025,1.315,1.31,1.3146,1.3177,1.3182,1.3194,1.3156,1.3228,1.3351,1.3367,1.3204,1.3203,1.3201,0,1.2311,1.2441,1.2538,1.2575,1.2672,1.2717,1.276,1.2831,1.2882,1.2957,1.2991,1.3075,1.3121,1.3187,1.323,1.3201,1.3353,1.3322,1.3379,1.3378,1.3411,1.3408,1.3545,1.3437,1.3437,1.3436,1.3436,0,1.2417,1.2498,1.2563,1.2623,1.2716,1.2756,1.2847,1.2891,1.2954,1.3025,1.3046,1.3112,1.3164,1.3238,1.3273,1.3373,1.3393,1.3418,1.3426,1.3417,1.3414,1.3448,1.3443,1.344,1.3439,1.3439,1.3438,0,1.2492,1.2539,1.2646,1.2729,1.2752,1.2817,1.2889,1.2949,1.2989,1.3079,1.3102,1.3166,1.3254,1.3304,1.3415,1.3438,1.355,1.3554,1.3525,1.3529,1.3584,1.3579,1.3748,1.3774,1.3647,1.3648,1.3649,0,1.2557,1.262,1.271,1.2758,1.2801,1.2878,1.2931,1.2974,1.3028,1.3118,1.3168,1.3257,1.333,1.3471,1.3529,1.3615,1.3622,1.3676,1.3636,1.3625,1.3626,1.3623,1.363,1.3683,1.3685,1.3686,1.3686,0,1.2668,1.2689,1.2762,1.2845,1.2906,1.2974,1.3041,1.3079,1.3134,1.3194,1.3284,1.3341,1.3454,1.3544,1.3634,1.3681,1.3694,1.3698,1.3716,1.3708,1.369,1.3703,1.3546,1.3695,1.3694,1.3693,1.3693,1.3692,1.2742,1.28,1.2873,1.2955,1.3009,1.3072,1.3133,1.3181,1.3256,1.3351,1.3372,1.3468,1.3543,1.3666,1.3715,1.3792,1.3782,1.3808,1.3814,1.3821,1.3824,1.3676,1.3808,1.3808,1.3808,1.3808,1.3808,0,1.2857,1.2904,1.2979,1.3072,1.3137,1.3142,1.3217,1.3272,1.3355,1.3423,1.3495,1.36,1.3687,1.3752,1.3841,1.3891,1.3899,1.3913,1.3911,1.3922,1.3826,1.3802,1.3905,1.3905,1.3905,1.3905,1.3905,1.3905,1.2924,1.3022,1.3051,1.3178,1.3226,1.3319,1.3361,1.342,1.3475,1.359,1.3662,1.3703,1.3771,1.3866,1.3948,1.3965,1.3998,1.4011,1.403,1.3939,1.3929,1.3919,1.3897,1.4018,1.4018,1.412,1.4121,1.4121]},{"header":{"parameterUnit":"m.s-1","parameterCategory":1,"la1":30.2991,"la2":30.254,"lo1":-89.0895,"lo2":-89.0444,"dy":0.0017,"dx":0.0017,"nx":28,"ny":28,"refTime":"2024-05-14T09:00:00:Z","depth":0,"parameterNumber":3,"parameterNumberName":"V-component_of_WINDS"},"data":[0,0,0,0,0,0,0,0,0,0,0,0,0,0,0,0,0,0,0,0,0,0,0,0,0,0,0,0,0,0,0,0,0,0,0,0,0,0,0,0,0,0,0,0,0,0,0,0,0,0,0,0,0,0,0,0,0,0,0.7443,0.7445,0,0.7612,0.7614,0.7616,0.7622,0.762,0.7618,0.7616,0.7797,0.7803,0.781,0,0,0,0,0,0,0,0,0,0,0,0,0,0.7132,0.7137,0.7443,0.7445,0.7447,0.7612,0.7614,0.7617,0.7623,0.762,0.7618,0.7615,0.7795,0.7803,0.7811,0,0,0,0,0,0,0,0,0,0,0,0,0,0.7281,0.7139,0.7442,0.747,0.7474,0.7611,0.7614,0.7617,0.7623,0.762,0.7617,0.7614,0.7792,0.7802,0.7812,0.7936,0,0,0.7843,0.7847,0,0,0,0,0,0,0,0,0.7272,0.7292,0.7464,0.7468,0.7473,0.7593,0.7571,0.7724,0.7624,0.7567,0.7616,0.7612,0.7732,0.7747,0.7786,0.7944,0.7952,0.7843,0.785,0.7854,0.7857,0,0,0,0,0,0,0,0.7262,0.7285,0.751,0.7466,0.7472,0.7476,0.7494,0.76,0.7665,0.7571,0.7572,0.7592,0.7734,0.7776,0.779,0.7955,0.7843,0.7852,0.7858,0.7862,0.8226,0.823,0,0,0,0,0,0,0.7245,0.7276,0.7505,0.7515,0.7363,0.7484,0.7504,0.7558,0.7664,0.7677,0.7594,0.7591,0.776,0.7778,0.7796,0.7951,0.7854,0.7863,0.7869,0.8223,0.8227,0.8231,0,0,0,0,0,0,0.7238,0.7265,0.7498,0.7396,0.7426,0.7492,0.7553,0.7563,0.7604,0.7681,0.7693,0.7625,0.7758,0.7782,0.7901,0.7957,0.7868,0.7877,0.8218,0.8224,0.8229,0.8259,0,0,0,0,0,0,0.7229,0.7263,0.7309,0.7397,0.7431,0.7598,0.7556,0.7568,0.7621,0.7619,0.7713,0.7725,0.7758,0.7886,0.7911,0.7969,0.7885,0.8214,0.8221,0.8227,0.8253,0.8264,0.8274,0,0,0,0,0,0.7218,0.7312,0.7312,0.7339,0.749,0.7601,0.7621,0.7654,0.7625,0.7674,0.7723,0.7722,0.7946,0.7898,0.7926,0.7988,0.821,0.8219,0.8227,0.8248,0.8262,0.8274,0,0,0,0,0,0,0.7232,0.7324,0.7325,0.7449,0.7517,0.7602,0.7664,0.7668,0.7747,0.7742,0.7782,0.7804,0.7922,0.7967,0.7912,0.8115,0.8075,0.8089,0.8082,0.8096,0.8106,0.8094,0.7893,0,0,0,0,0,0.7249,0.7329,0.7406,0.7508,0.7542,0.7597,0.7647,0.7666,0.7739,0.7769,0.7827,0.79,0.7986,0.8043,0.8127,0.8258,0.8281,0.8315,0.8326,0.8334,0.8347,0.8422,0.8439,0.8258,0.8257,0.8257,0,0,0.7286,0.7346,0.7395,0.7513,0.7567,0.7652,0.7621,0.7712,0.7776,0.7783,0.7899,0.7944,0.8028,0.8155,0.8213,0.8196,0.8401,0.8344,0.835,0.8359,0.8432,0.8449,0.8465,0.8263,0.8262,0.8261,0,0,0.7397,0.7449,0.7541,0.7596,0.7679,0.7714,0.7736,0.7821,0.7851,0.7967,0.7974,0.8052,0.82,0.826,0.831,0.8444,0.8447,0.847,0.8526,0.8599,0.8614,0.8627,0.8677,0.8694,0.8482,0.8482,0.8482,0,0.7433,0.7559,0.7588,0.7679,0.7732,0.7739,0.7835,0.7887,0.7994,0.8032,0.8009,0.8196,0.8253,0.8395,0.8427,0.8466,0.8495,0.8461,0.8608,0.8622,0.8635,0.8683,0.8702,0.8484,0.8484,0.8484,0.8483,0,0.76,0.7687,0.7752,0.7853,0.7913,0.8005,0.8051,0.8109,0.8123,0.8162,0.8281,0.835,0.8448,0.8483,0.8498,0.8628,0.8614,0.8599,0.8561,0.8654,0.87,0.8719,0.8488,0.8487,0.8486,0.8486,0,0,0.7727,0.7842,0.7866,0.7912,0.8003,0.8073,0.8166,0.826,0.831,0.8383,0.8465,0.859,0.8577,0.8634,0.8656,0.8719,0.8824,0.8698,0.87,0.8721,0.8974,0.8987,0.9007,0.8825,0.8829,0.8832,0.8968,0,0.785,0.8014,0.8044,0.8189,0.8271,0.8279,0.8361,0.8427,0.8466,0.8543,0.8587,0.8675,0.865,0.8685,0.8748,0.8798,0.8876,0.8788,0.8905,0.8909,0.8887,0.9031,0.9045,0.917,0.8986,0.8989,0.8991,0,0.8016,0.8092,0.8244,0.8325,0.8361,0.8434,0.8524,0.8596,0.8672,0.8696,0.8759,0.8774,0.8874,0.8828,0.8968,0.8908,0.8957,0.8989,0.8995,0.901,0.8958,0.9053,0.921,0.923,0.902,0.9017,0.9015,0,0.8097,0.8237,0.8346,0.8385,0.8482,0.8534,0.8577,0.8649,0.8705,0.8783,0.882,0.891,0.896,0.9031,0.907,0.9033,0.9209,0.9166,0.9235,0.9234,0.9274,0.9272,0.9445,0.93,0.93,0.93,0.9299,0,0.8234,0.8327,0.8384,0.8452,0.8558,0.8591,0.8696,0.8738,0.8803,0.8881,0.8893,0.8967,0.9013,0.9095,0.9126,0.9239,0.9261,0.9286,0.9294,0.9287,0.9284,0.9322,0.9316,0.9305,0.9304,0.9303,0.9302,0,0.8343,0.8384,0.8505,0.8585,0.8608,0.8683,0.8754,0.8821,0.8858,0.8958,0.8983,0.9043,0.9139,0.9185,0.9304,0.9326,0.9455,0.9456,0.9429,0.9433,0.9501,0.9495,0.9707,0.9738,0.957,0.9571,0.9572,0,0.8429,0.8501,0.8589,0.8641,0.8685,0.8769,0.8825,0.886,0.8918,0.9011,0.9068,0.9164,0.9243,0.9396,0.9453,0.9545,0.955,0.9617,0.9564,0.9555,0.9555,0.9551,0.956,0.9628,0.963,0.9631,0.9632,0,0.8578,0.8595,0.8673,0.876,0.8825,0.8896,0.8965,0.9008,0.9055,0.912,0.9217,0.9278,0.9399,0.9496,0.9591,0.9639,0.9646,0.9648,0.967,0.9665,0.9648,0.9661,0.9459,0.9644,0.9643,0.9642,0.9642,0.9641,0.8681,0.8746,0.8818,0.8906,0.8961,0.9025,0.9093,0.9138,0.9219,0.9319,0.9336,0.944,0.9516,0.9645,0.9695,0.9779,0.9764,0.9794,0.9803,0.981,0.9816,0.9631,0.9796,0.9796,0.9796,0.9795,0.9795,0,0.8834,0.888,0.896,0.9055,0.9125,0.9121,0.9197,0.9257,0.9348,0.9416,0.9493,0.9606,0.97,0.9762,0.9858,0.9913,0.9919,0.9937,0.9936,0.9947,0.9822,0.9796,0.9931,0.9931,0.9931,0.9931,0.9931,0.9931,0.8921,0.9032,0.9057,0.9196,0.9242,0.9343,0.9387,0.9448,0.9503,0.9628,0.9704,0.9743,0.9811,0.9911,0.9998,1.0014,1.005,1.007,1.0087,0.997,0.9956,0.9942,0.9917,1.0077,1.0077,1.0205,1.0206,1.0207]}]]